Location: Cactus School
(34.5700°N, 118.0931°W)
Time: 07:35:17
(UTC-07:00)

A-11 Canister half - Pass Details

Date: 25 April 2024
Orbit: 1525 x 1683 km, 47.3° (Epoch: 25 May)

Event Time Altitude Azimuth Distance (km) Brightness Sun altitude
Exits shadow 03:39:57 33° 181° (S) 2,487 9.7 -27.4°
Maximum altitude 03:43:54 47° 132° (SE) 2,071 9.6 -26.7°
Drops below altitude 10° 03:53:19 10° 63° (ENE) 3,926 12.1 -25.3°
Sets 03:56:39 0° 58° (ENE) 4,928 13.0 -24.7°
